EDT,Max TemperatureF,Mean TemperatureF,Min TemperatureF,Max Dew PointF,MeanDew PointF,Min DewpointF,Max Humidity, Mean Humidity, Min Humidity, Max Sea Level PressureIn, Mean Sea Level PressureIn, Min Sea Level PressureIn, Max VisibilityMiles, Mean VisibilityMiles, Min VisibilityMiles, Max Wind SpeedMPH, Mean Wind SpeedMPH, Max Gust SpeedMPH,PrecipitationIn, CloudCover, Events, WindDirDegrees
2013-6-1,82,76,71,71,69,66,93,75,58,30.21,30.16,30.12,10,10,10,16,7,21,0.00,0,,208
2013-6-2,84,78,73,71,69,68,85,76,60,30.13,30.06,30.01,10,10,10,15,10,23,0.00,0,,206
2013-6-3,82,74,69,73,69,66,94,87,76,30.01,29.95,29.89,10,8,2,17,9,31,0.29,6,Rain-Thunderstorm,206
2013-6-4,82,76,69,72,68,63,94,81,61,30.12,30.00,29.93,10,7,1,14,4,21,0.00,6,,30
2013-6-5,82,74,66,64,61,56,87,64,42,30.14,30.10,30.07,10,10,10,14,8,18,0.00,4,,77
2013-6-6,81,76,71,72,69,63,94,81,69,30.08,29.96,29.89,10,9,2,15,9,18,0.10,7,Rain,137
2013-6-7,82,78,75,74,72,68,94,82,69,29.89,29.73,29.61,10,6,1,30,17,44,0.46,7,Rain-Thunderstorm,183
2013-6-8,82,78,73,75,73,70,94,86,74,30.14,29.99,29.90,10,8,3,21,11,28,0.04,4,Rain-Thunderstorm,219
2013-6-9,82,78,75,75,73,68,94,86,74,30.20,30.16,30.12,10,9,6,15,8,21,0.00,4,,205
2013-6-10,84,78,73,74,72,69,90,83,69,30.17,30.09,30.02,10,9,4,21,11,28,0.03,5,Rain,210
2013-6-11,82,78,75,74,71,68,90,81,67,30.02,29.98,29.92,10,9,6,17,12,26,0.00,6,Rain,232
2013-6-12,88,79,71,76,70,64,94,76,48,30.01,29.96,29.91,10,7,2,14,4,18,0.00,2,,239
2013-6-13,88,79,71,77,73,60,93,79,49,29.91,29.79,29.67,10,6,2,24,10,32,0.28,1,Rain-Thunderstorm,233
2013-6-14,81,74,64,68,60,52,94,65,40,30.04,29.84,29.71,10,10,5,13,7,20,0.20,4,Rain-Thunderstorm,346
2013-6-15,82,70,57,62,56,53,90,59,38,30.14,30.10,30.05,10,10,10,14,5,22,0.00,0,,243
2013-6-16,82,76,71,65,63,62,78,63,52,30.19,30.13,30.09,10,10,10,16,9,24,0.00,1,,231
2013-6-17,84,78,75,71,68,63,82,70,63,30.11,30.07,30.01,10,10,9,17,12,24,0.00,3,,218
2013-6-18,84,78,73,75,73,68,94,83,67,30.02,29.92,29.83,10,8,1,18,10,28,0.19,5,Rain-Thunderstorm,224
2013-6-19,78,74,69,72,68,63,94,83,65,30.13,29.96,29.85,10,9,1,13,8,21,0.41,6,Rain-Thunderstorm,354
2013-6-20,82,74,66,65,61,51,90,69,34,30.22,30.17,30.10,10,10,8,15,7,21,0.00,2,,29
2013-6-21,84,75,66,73,68,61,94,79,58,30.22,30.19,30.16,10,10,2,17,8,24,0.14,4,Rain-Thunderstorm,40
2013-6-22,79,74,71,72,70,68,91,84,78,30.22,30.19,30.16,10,9,2,20,11,29,0.00,5,Rain,142
2013-6-23,82,77,73,74,73,70,93,83,74,30.25,30.22,30.19,10,9,4,13,6,20,0.00,3,Rain,193
2013-6-24,82,78,73,74,73,69,94,84,69,30.27,30.22,30.15,10,9,1,14,6,20,0.01,4,Rain-Thunderstorm,228
2013-6-25,84,78,71,75,73,66,91,82,73,30.18,30.13,30.07,10,9,2,16,9,23,0.01,4,Rain-Thunderstorm,234
2013-6-26,84,81,78,75,73,71,87,80,67,30.07,30.03,29.98,10,10,10,21,10,26,0.00,2,,226
2013-6-27,84,78,73,76,73,66,88,80,72,29.96,29.89,29.81,10,9,5,22,12,29,0.00,5,Rain,225
2013-6-28,84,80,77,76,75,70,90,83,74,29.82,29.74,29.68,10,7,5,20,14,29,0.00,6,Rain-Thunderstorm,227
2013-6-29,82,79,77,75,73,72,89,82,74,29.84,29.73,29.66,10,8,7,20,15,32,0.00,5,Rain,215
2013-6-30,81,79,77,75,73,71,87,82,78,29.95,29.88,29.83,10,9,7,17,13,30,0.01,4,Rain,191